Flag for Germany Weather past 2 weeks in Rheinberg, North Rhine-Westphalia, Germany

Now
55 °F

Passing clouds.


Feels Like: 54 °F
Forecast: 53 / 66 °F
Wind: 6 mph from Southwest

Location: Duesseldorf

Current Time: Jul 28, 2015 at 5:27:33 AM

Latest Report: Jul 28, 2015 at 4:00 AM


Visibility: 31 mi

Pressure: 29.67 "Hg

Humidity: 76%

Dew point: 48 °F

Location of RheinbergLocation

Historic Weather in Rheinberg — Graph

°F

Rheinberg temperature yesterday

Maximum temperature yesterday: 69 °F (at 7:00 PM)
Minimum temperature yesterday: 57 °F (at 2:00 AM)
Average temperature yesterday: 63 °F

Past Weeks' High & Low Weather Summary

 TemperatureHumidityPressure
High90 °F (Jul 17, 4:00 PM)98% (Jul 16, 4:00 AM)30.12 "Hg (Jul 16, 4:00 AM)
Low51 °F (Jul 26, 4:00 AM)30% (Jul 17, 4:00 PM)29.50 "Hg (Jul 25, 7:00 AM)
Average68 °F72%29.92 "Hg
* Reported Jul 13 4:00 AM — Jul 28 4:00 AM, Rheinberg, Weather by CustomWeather, © 2015

Note: Actual official high and low records may vary slightly from our data, if they occured in-between our weather recording intervals... More about our weather records

Advertising

Rheinberg weather history for previous 24 hours

 ConditionsComfort  
Time TempWeatherWind HumidityBarometerVisibility
4:00 AM
Tue, Jul 28
55 °FPassing clouds.6 mph76%29.67 "Hg31 mi
3:00 AM57 °FPassing clouds.7 mph73%29.67 "Hg31 mi
2:00 AM58 °FPassing clouds.7 mph71%29.67 "Hg31 mi
1:00 AM60 °FPassing clouds.6 mph68%29.67 "Hg31 mi
10:00 PM
Mon, Jul 27
61 °FPassing clouds.5 mph89%29.64 "Hg25 mi
9:00 PM64 °FSprinkles. Overcast.7 mph79%29.63 "Hg28 mi
8:00 PM67 °FSprinkles. Partly sunny.8 mph66%29.61 "Hg12 mi
7:00 PM69 °FPartly sunny.8 mph59%29.61 "Hg25 mi
6:00 PM69 °FPartly sunny.9 mph61%29.61 "Hg25 mi
5:00 PM68 °FPartly sunny.12 mph59%29.59 "Hg19 mi
4:00 PM67 °FOvercast.10 mph68%29.59 "Hg19 mi
3:00 PM65 °FPartly sunny.9 mph77%29.59 "Hg16 mi
2:00 PM63 °FOvercast.9 mph79%29.58 "Hg12 mi
1:00 PM62 °FOvercast.8 mph85%29.58 "Hg12 mi
12:00 PM64 °FSprinkles. Overcast.9 mph83%29.57 "Hg9 mi
10:00 AM63 °FOvercast.8 mph80%29.56 "Hg22 mi
9:00 AM61 °FLow clouds.8 mph86%29.55 "Hg19 mi
8:00 AM60 °FLow clouds.5 mph90%29.55 "Hg19 mi
7:00 AM59 °FLow clouds.6 mph92%29.56 "Hg11 mi
Weather by CustomWeather, © 2015

See weather overviewHow to use our weather pages